Inquirer Daily News

Weather

Get conditions and forecasts for any City, State, ZIP code or Country:  
Trenton, NJ
on Saturday, December 8, 2012

Saturday
Previous Day Next Day
Daily Summary
 ActualAverageRecord
Temperature
Mean Temperature °F 38°F  
Max Temperature 50°F 45°F 66°F (1980)
Min Temperature 40°F 30°F 10°F (1906)
Degree Days
Heating Degree Days 20 27  
Month to date heating degree days 162 208  
Since 1 July heating degree days 1169 1184  
Cooling Degree Days 0 0  
Month to date cooling degree days 0 0  
Year to date cooling degree days 1234 965  
Moisture
Dew Point 44°F   
Average Humidity 93    
Maximum Humidity 100    
Minimum Humidity 86    
Precipitation
Precipitation 0.13 in 0.13 in 0.91 in (1974)
Month to date precipitation 0.45 1.10  
Year to date precipitation 33.68 43.84  
Wind
Wind Speed 3 mph   
Max Wind Speed 9 mph   
Max Gust Speed 14 mph   
Visibility 3 miles   
Events Fog , Rain   

Key: T is trace of precipitation, MM is missing value
Source: NWS Daily Summary
Time(EST)TemperatureDew PointHumidity Pressure Visibility Wind DirectionWind SpeedGust SpeedPrecipitationEvents Conditions
12:04 AM 41.0°F 39.2°F 93% 30.01 in 2.5 miles NNE 4.6 mph - 0.01 in Rain Light Rain
12:49 AM 39.2°F 39.2°F 100% 30.00 in 3.0 miles NNE 3.5 mph - 0.09 in Rain Rain
12:53 AM 39.9°F 39.0°F 97% 29.98 in 3.0 miles NE 3.5 mph - 0.09 in Rain Light Rain
1:12 AM 41.0°F 39.2°F 93% 29.98 in 5.0 miles ENE 3.5 mph - 0.00 in Rain Light Rain
1:53 AM 42.1°F 39.9°F 92% 29.96 in 5.0 miles ENE 3.5 mph - 0.01 in Rain Light Rain
2:53 AM 42.1°F 39.9°F 92% 29.94 in 5.0 miles NNE 4.6 mph - 0.02 in   Overcast
3:38 AM 42.8°F 41.0°F 93% 29.94 in 2.0 miles NE 3.5 mph - 0.00 in Rain Light Rain
3:53 AM 43.0°F 41.0°F 93% 29.92 in 2.0 miles ENE 4.6 mph - 0.00 in Rain Light Rain
4:07 AM 42.8°F 41.0°F 93% 29.92 in 3.0 miles ENE 4.6 mph - 0.00 in   Overcast
4:53 AM 43.0°F 42.1°F 97% 29.90 in 4.0 miles NNE 3.5 mph - 0.00 in   Overcast
5:33 AM 42.8°F 42.8°F 100% 29.91 in 2.5 miles Calm Calm - N/A   Overcast
5:46 AM 42.8°F 42.8°F 100% 29.91 in 1.5 miles Calm Calm - N/A   Overcast
5:53 AM 43.0°F 42.1°F 97% 29.90 in 1.2 miles Calm Calm - N/A   Overcast
6:33 AM 42.8°F 42.8°F 100% 29.91 in 0.8 miles North 4.6 mph - 0.01 in   Mist
6:53 AM 43.0°F 42.1°F 97% 29.90 in 0.8 miles North 3.5 mph - 0.01 in   Mist
7:53 AM 44.1°F 43.0°F 96% 29.90 in 0.5 miles NNW 3.5 mph - N/A Fog Fog
8:53 AM 44.1°F 43.0°F 96% 29.91 in 0.8 miles North 3.5 mph - N/A   Overcast
9:18 AM 44.6°F 42.8°F 93% 29.93 in 1.0 miles Calm Calm - N/A   Overcast
9:53 AM 45.0°F 44.1°F 97% 29.92 in 2.0 miles Calm Calm - N/A   Overcast
10:53 AM 46.0°F 45.0°F 96% 29.91 in 2.0 miles West 3.5 mph - N/A   Overcast
11:09 AM 46.4°F 44.6°F 93% 29.91 in 3.0 miles WSW 3.5 mph - N/A   Overcast
11:16 AM 46.4°F 46.4°F 100% 29.91 in 2.0 miles WSW 3.5 mph - N/A   Overcast
11:29 AM 46.4°F 46.4°F 100% 29.91 in 1.8 miles Calm Calm - N/A   Overcast
11:46 AM 48.2°F 46.4°F 93% 29.91 in 2.5 miles WSW 4.6 mph - N/A   Overcast
11:53 AM 48.0°F 46.0°F 93% 29.89 in 3.0 miles NW 5.8 mph - N/A   Overcast
12:29 PM 48.2°F 46.4°F 93% 29.90 in 6.0 miles West 3.5 mph - N/A   Overcast
12:53 PM 48.9°F 46.9°F 93% 29.88 in 6.0 miles West 5.8 mph - N/A   Overcast
1:53 PM 50.0°F 46.9°F 89% 29.87 in 6.0 miles WSW 3.5 mph - N/A   Overcast
2:53 PM 50.0°F 46.9°F 89% 29.90 in 5.0 miles West 6.9 mph - N/A   Overcast
3:53 PM 50.0°F 46.9°F 89% 29.90 in 5.0 miles NNW 4.6 mph - N/A   Overcast
4:53 PM 50.0°F 46.9°F 89% 29.91 in 6.0 miles Calm Calm - N/A   Overcast
5:53 PM 48.9°F 46.9°F 93% 29.92 in 5.0 miles Calm Calm - N/A   Overcast
6:53 PM 48.9°F 46.9°F 93% 29.93 in 4.0 miles Calm Calm - N/A   Overcast
7:53 PM 48.9°F 46.0°F 90% 29.96 in 4.0 miles Calm Calm - N/A   Overcast
8:53 PM 48.9°F 46.9°F 93% 29.97 in 4.0 miles Calm Calm - 0.00 in   Overcast
9:10 PM 48.2°F 48.2°F 100% 29.99 in 4.0 miles Calm Calm - N/A   Overcast
9:44 PM 48.2°F 48.2°F 100% 29.99 in 2.5 miles Calm Calm - 0.00 in Rain Light Rain
9:53 PM 48.9°F 48.0°F 97% 29.98 in 2.5 miles WSW 3.5 mph - 0.00 in Rain Light Rain
10:53 PM 48.9°F 48.0°F 97% 29.99 in 2.5 miles West 3.5 mph - 0.00 in Rain Light Rain
11:21 PM 48.2°F 48.2°F 100% 30.01 in 1.8 miles Calm Calm - 0.01 in Rain Light Rain
11:53 PM 48.9°F 48.0°F 97% 30.00 in 1.5 miles West 3.5 mph - 0.01 in   Overcast
Astronomy
Sunrise:07:09 AM (EST) Moon Rise:01:31 AM (EST)12/8
Sunset:04:33 PM (EST) Moon Set:01:02 PM (EST)12/8
Moon Phase
Dec. 08 Dec. 13 Dec. 20 Dec. 28 Jan. 04

Copyright © 2014 The Weather Underground, Inc.